Hourly Weather Roundup
Issued by NWS Central Illinois

Home | Current Version | Previous Version | Text Only | Print | Product List | Glossary On
Versions: 1 2 3 4 5 6 7 8 9 10 11 12 13 14 15 16 17 18 19 20 21 22 23 24 25 26 27 28 29 30 31 32 33 34 35 36 37 38 39 40 41 42 43 44 45 46 47 48 49 50
000
NZUS43 KILX 252110
HWRILX

AREA WEATHER ROUNDUP
NATIONAL WEATHER SERVICE, LINCOLN IL
300 PM CST SUN JAN 25 2015


CITY           SKY/WX    TMP DP  RH WIND       PRES   REMARKS
BLOOMINGTON    FLURRIES  33  33 100 NE18G31   29.73R WCI  22
CHAMPAIGN      CLOUDY    35  32  88 NE21G28   29.66R WCI  24
DECATUR        CLOUDY    35  33  92 NE21      29.67R WCI  24
FLORA          CLOUDY    41  41 100 N3        29.60R FOG
GALESBURG      MIX PCPN  29  26  91 N25G31    29.84R WCI  14
JACKSONVILLE   CLOUDY    37  34  87 N16G22    29.74R WCI  28
LACON          LGT SNOW  30  27  88 N15G25    29.82R WCI  19
LAWRENCEVILLE  LGT RAIN  41  40  96 E3        29.61R FOG
LITCHFIELD     CLOUDY    37  35  92 N18G24    29.65R FOG     WCI  27
$$


CITY           SKY/WX    TMP DP  RH WIND       PRES   REMARKS
LINCOLN        DRIZZLE   36  34  92 N21G26    29.73R WCI  25
MACOMB         LGT SNOW  31  29  93 N25G32    29.84R WCI  17
MATTOON        CLOUDY    38  37  97 N15       29.61R FOG     WCI  29
MT CARMEL AP   LGT RAIN  43  39  87 CALM      29.60R
OLNEY-NOBLE AP CLOUDY    41  39  93 CALM      29.60R FOG
PARIS          DRIZZLE   38  38  99 NE7       29.64R WCI  33
PEORIA         LGT SNOW  33  29  85 NE13G24   29.79R FOG     WCI  24
PONTIAC        MIX PCPN  33  32  96 NE24G33   29.78R WCI  20
RANTOUL        CLOUDY    36  34  93 NE20G25   29.69R WCI  25
ROBINSON       LGT RAIN  40  39  98 E5        29.62R
SPRINGFIELD    LGT RAIN  36  33  89 N16       29.71R WCI  26
TAYLORVILLE    CLOUDY    36  34  93 N23G29    29.67R FOG     WCI  24
$$

...REGIONAL REPORTS...


CITY           SKY/WX    TMP DP  RH WIND       PRES   REMARKS
CHICAGO O`HARE FLURRIES  27  21  78 N21G30    29.86R WCI  13
KANKAKEE       LGT SNOW  32  30  94 N15G25    29.78R WCI  21
MOLINE         CLOUDY    30  22  72 NE8       29.87R WCI  22
MOUNT VERNON   CLOUDY    43  39  87 CALM      29.59R
PITTSFIELD     RAIN      36  33  92 N14G21    29.76R WCI  27
QUINCY         MIX PCPN  32  30  92 N22G30    29.78R WCI  19
ROCKFORD       PTSUNNY   27  14  58 NE18G30   29.91R WCI  14
$$


CITY           SKY/WX    TMP DP  RH WIND       PRES   REMARKS
BURLINGTON     CLOUDY    31  28  89 N20       29.85R WCI  19
CEDAR RAPIDS   CLOUDY    28  22  78 N17       29.91R WCI  16
DES MOINES     CLOUDY    35  29  78 N12       29.97R WCI  27
KIRKSVILLE     CLOUDY    32  30  92 N18G32    29.86R WCI  20
OTTUMWA        CLOUDY    30  26  85 N13G22    29.91R WCI  20
ST LOUIS       LGT RAIN  44  40  85 N14       29.66R
$$


CITY           SKY/WX    TMP DP  RH WIND       PRES   REMARKS
TERRE HAUTE    LGT RAIN  39  37  92 NE5       29.63R FOG
EVANSVILLE     LGT RAIN  43  40  89 S7        29.60S FOG
INDIANAPOLIS   CLOUDY    35  33  92 NE12      29.63R FOG     WCI  27
LAFAYETTE      LGT SNOW  30  28  92 NE23G36   29.69R FOG     WCI  17
MADISON        PTSUNNY   25  14  63 NE14      29.95R WCI  13
MILWAUKEE      PTSUNNY   25  14  63 NE20G26   29.94R WCI  11
$$




USA.gov is the U.S. government's official web portal to all federal, state and local government web resources and services.